Weather History for Fort Myers, FL

Change the Weather History Date:

Thursday, April 11, 2013

  Actual Average Record
Temperature  
Mean Temperature 80 °F 73 °F  
Max Temperature 88 °F 84 °F 95 °F (1946)
Min Temperature 71 °F 62 °F 45 °F (1960)
Degree Days  
Heating Degree Days 0 0  
Month to date heating degree days 0 0  
Since 1 July heating degree days 201 284  
Cooling Degree Days 15 8  
Month to date cooling degree days 105 84  
Year to date cooling degree days 487 445  
Growing Degree Days 30 (Base 50)    
Moisture  
Dew Point 70 °F    
Average Humidity 80    
Maximum Humidity 93    
Minimum Humidity 50    
Precipitation  
Precipitation 0.01 in 0.07 in 1.10 in (1911)
Month to date precipitation 1.34 0.85  
Year to date precipitation 4.60 7.82  
Sea Level Pressure  
Sea Level Pressure 29.93 in    
Wind  
Wind Speed 9 mph (SE)    
Max Wind Speed 18 mph    
Max Gust Speed 24 mph    
Visibility 10 miles    
Events      
T = Trace of Precipitation, MM = Missing Value Source: NWS Daily Summary

Daily Weather History Graph

Daily Weather History Graph

Search for Another Location

Airport:

Trip Planner

Search our weather history database for the weather conditions in past years. The results will help you decide how hot, cold, wet, or windy it might be!

Date:

Astronomy

Apr. 11, 2013 Rise Set
Actual Time 7:07 AM EDT 7:49 PM EDT
Civil Twilight 6:44 AM EDT 8:13 PM EDT
Nautical Twilight 6:16 AM EDT 8:40 PM EDT
Astronomical Twilight 5:48 AM EDT 9:09 PM EDT
Moon 7:46 AM EDT (4/11) 9:12 PM EDT (4/11)
Length of Visible Light 13h 29m
Length of Day
12h 42m
New Moon, 2% of the Moon is Illuminated
Apr 11
New Moon
Apr 18
First Quarter
Apr 25
Full
May 2
Last Quarter
May 9
New

Hourly Weather History & Observations

Time (EDT) Temp. Heat Index Dew Point Humidity Pressure Visibility Wind Dir Wind Speed Gust Speed Precip Events Conditions
12:53 AM 73.0 °F - 69.1 °F 87% 30.00 in 10.0 mi ESE 5.8 mph - N/A   Clear
1:53 AM 72.0 °F - 69.1 °F 91% 29.97 in 10.0 mi ESE 5.8 mph - N/A   Clear
2:53 AM 72.0 °F - 69.1 °F 91% 29.96 in 9.0 mi ESE 5.8 mph - N/A   Partly Cloudy
3:53 AM 72.0 °F - 70.0 °F 93% 29.94 in 9.0 mi SE 5.8 mph - N/A   Clear
4:53 AM 71.1 °F - 70.0 °F 96% 29.94 in 9.0 mi ESE 9.2 mph - N/A   Mostly Cloudy
5:53 AM 71.1 °F - 69.1 °F 93% 29.94 in 9.0 mi SE 6.9 mph - N/A   Mostly Cloudy
6:10 AM 71.6 °F - 69.8 °F 94% 29.93 in 9.0 mi ESE 5.8 mph - N/A   Scattered Clouds
6:20 AM 71.6 °F - 69.8 °F 94% 29.93 in 9.0 mi ESE 8.1 mph - N/A   Mostly Cloudy
6:43 AM 71.6 °F - 69.8 °F 94% 29.93 in 8.0 mi ESE 6.9 mph - N/A   Scattered Clouds
6:53 AM 71.1 °F - 69.1 °F 93% 29.95 in 9.0 mi ESE 6.9 mph - N/A   Mostly Cloudy
7:15 AM 71.6 °F - 69.8 °F 94% 29.95 in 7.0 mi ESE 5.8 mph - N/A   Scattered Clouds
7:53 AM 71.1 °F - 69.1 °F 93% 29.96 in 9.0 mi ESE 5.8 mph - N/A   Scattered Clouds
8:53 AM 75.0 °F - 70.0 °F 84% 29.97 in 10.0 mi SE 11.5 mph - N/A   Scattered Clouds
8:55 AM 75.2 °F - 71.6 °F 89% 29.97 in 10.0 mi SE 11.5 mph - N/A   Scattered Clouds
9:24 AM 77.0 °F - 71.6 °F 83% 29.97 in 10.0 mi SE 13.8 mph 18.4 mph N/A   Mostly Cloudy
9:53 AM 78.1 °F - 71.1 °F 79% 29.97 in 10.0 mi SE 9.2 mph 23.0 mph N/A   Mostly Cloudy
10:53 AM 80.1 °F 83.2 °F 70.0 °F 71% 29.99 in 10.0 mi SSE 12.7 mph - N/A   Overcast
11:22 AM 82.4 °F 86.3 °F 69.8 °F 66% 29.98 in 10.0 mi SSE 11.5 mph - N/A   Mostly Cloudy
11:53 AM 84.0 °F 88.4 °F 70.0 °F 63% 29.97 in 10.0 mi SE 13.8 mph 19.6 mph N/A   Mostly Cloudy
1:53 PM 88.0 °F 90.7 °F 66.9 °F 49% 29.92 in 10.0 mi SSE 9.2 mph - N/A   Mostly Cloudy
2:53 PM 87.1 °F 91.3 °F 69.1 °F 55% 29.91 in 10.0 mi SE 11.5 mph - 0.00 in   Mostly Cloudy
3:53 PM 84.0 °F 87.8 °F 69.1 °F 61% 29.89 in 10.0 mi South 13.8 mph 21.9 mph 0.01 in   Mostly Cloudy
4:53 PM 84.9 °F 90.1 °F 71.1 °F 63% 29.87 in 10.0 mi South 12.7 mph - N/A   Mostly Cloudy
5:53 PM 84.0 °F 89.0 °F 71.1 °F 65% 29.86 in 10.0 mi SSE 11.5 mph - 0.00 in   Mostly Cloudy
6:53 PM 84.0 °F 88.4 °F 70.0 °F 63% 29.86 in 10.0 mi South 5.8 mph - N/A   Mostly Cloudy
7:53 PM 80.1 °F 83.8 °F 72.0 °F 76% 29.88 in 10.0 mi SE 6.9 mph - N/A   Partly Cloudy
8:53 PM 78.1 °F - 71.1 °F 79% 29.87 in 10.0 mi SSE 5.8 mph - N/A   Clear
9:53 PM 78.1 °F - 71.1 °F 79% 29.87 in 10.0 mi SSE 10.4 mph - N/A   Scattered Clouds
10:53 PM 77.0 °F - 70.0 °F 79% 29.87 in 10.0 mi SSE 9.2 mph - N/A   Clear
11:53 PM 77.0 °F - 71.1 °F 82% 29.88 in 10.0 mi South 10.4 mph - N/A   Partly Cloudy